Weather History for Monett, MO

Change the Weather History Date:

Saturday, December 8, 2012

  Actual Average (KJLN) Record (KJLN)
Temperature  
Mean Temperature 48 °F 39 °F  
Max Temperature 51 °F 49 °F 73 °F (1991)
Min Temperature 44 °F 29 °F 7 °F (1995)
Degree Days  
Heating Degree Days 18 26  
Month to date heating degree days 200  
Since 1 July heating degree days 957  
Cooling Degree Days 0 0  
Month to date cooling degree days 0  
Year to date cooling degree days 1698  
Moisture  
Dew Point 46 °F    
Average Humidity 95    
Maximum Humidity 100    
Minimum Humidity 87    
Precipitation  
Precipitation 0.00 in 0.10 in 1.54 in (1980)
Month to date precipitation 0.83  
Year to date precipitation 44.56  
Sea Level Pressure  
Sea Level Pressure 29.87 in    
Wind  
Wind Speed 6 mph (NE)    
Max Wind Speed 10 mph    
Max Gust Speed -    
Visibility 3 miles    
Events Fog    
T = Trace of Precipitation, MM = Missing Value Source: NWS Daily Summary

Daily Weather History Graph

Daily Weather History Graph

Search for Another Location

Airport:

Trip Planner

Search our weather history database for the weather conditions in past years. The results will help you decide how hot, cold, wet, or windy it might be!

Date:

Astronomy

Dec. 08, 2012 Rise Set
Actual Time 7:16 AM CST 4:59 PM CST
Civil Twilight 6:48 AM CST 5:28 PM CST
Nautical Twilight 6:15 AM CST 6:00 PM CST
Astronomical Twilight 5:44 AM CST 6:32 PM CST
Moon 1:48 AM CST (12/8) 1:24 PM CST (12/8)
Length of Visible Light 10h 40m
Length of Day
9h 42m
Waning Crescent, 28% of the Moon is Illuminated
Dec 8
Waning Crescent
Dec 13
New
Dec 19
First Quarter
Dec 28
Full
Jan 4
Last Quarter

Hourly Weather History & Observations

Time (CST) Temp. Windchill Dew Point Humidity Pressure Visibility Wind Dir Wind Speed Gust Speed Precip Events Conditions
12:15 AM 50.0 °F - 50.0 °F 100% 29.88 in 2.0 mi North 6.9 mph - N/A   Overcast
12:35 AM 48.2 °F - 48.2 °F 100% 29.88 in 2.5 mi North 6.9 mph - N/A   Overcast
12:55 AM 48.2 °F - 48.2 °F 100% 29.88 in 2.0 mi North 8.1 mph - N/A   Overcast
1:15 AM 46.4 °F 42.4 °F 46.4 °F 100% 29.87 in 2.5 mi North 8.1 mph - N/A   Overcast
1:35 AM 46.4 °F 44.3 °F 46.4 °F 100% 29.88 in 2.0 mi North 4.6 mph - N/A   Overcast
1:55 AM 46.4 °F 42.4 °F 46.4 °F 100% 29.87 in 1.0 mi NNE 8.1 mph - N/A   Overcast
2:15 AM 46.4 °F 42.9 °F 46.4 °F 100% 29.88 in 0.5 mi NNE 6.9 mph - N/A Fog Fog
2:35 AM 46.4 °F 43.5 °F 46.4 °F 100% 29.89 in 2.5 mi NE 5.8 mph - N/A   Overcast
2:55 AM 46.4 °F 44.3 °F 46.4 °F 100% 29.89 in 2.5 mi NE 4.6 mph - N/A   Overcast
3:15 AM 46.4 °F 44.3 °F 46.4 °F 100% 29.89 in 2.0 mi NE 4.6 mph - N/A   Overcast
3:35 AM 46.4 °F 44.3 °F 46.4 °F 100% 29.89 in 2.5 mi North 4.6 mph - N/A   Overcast
3:55 AM 46.4 °F 44.3 °F 46.4 °F 100% 29.89 in 4.0 mi NNE 4.6 mph - N/A   Overcast
4:15 AM 46.4 °F 43.5 °F 46.4 °F 100% 29.89 in 3.0 mi North 5.8 mph - N/A   Overcast
4:35 AM 46.4 °F 42.9 °F 46.4 °F 100% 29.90 in 3.0 mi North 6.9 mph - N/A   Overcast
4:55 AM 46.4 °F 43.5 °F 46.4 °F 100% 29.89 in 2.5 mi North 5.8 mph - N/A   Overcast
5:15 AM 46.4 °F 42.9 °F 46.4 °F 100% 29.90 in 2.5 mi North 6.9 mph - N/A   Overcast
5:35 AM 46.4 °F 42.4 °F 44.6 °F 93% 29.91 in 2.5 mi NNE 8.1 mph - N/A   Overcast
5:55 AM 46.4 °F 44.3 °F 44.6 °F 93% 29.91 in 1.8 mi North 4.6 mph - N/A   Overcast
6:15 AM 46.4 °F 42.4 °F 44.6 °F 93% 29.92 in 0.8 mi North 8.1 mph - N/A   Overcast
6:35 AM 44.6 °F 40.7 °F 44.6 °F 100% 29.92 in 0.2 mi North 6.9 mph - N/A Fog Fog
6:55 AM 44.6 °F 40.7 °F 44.6 °F 100% 29.92 in 0.5 mi NNE 6.9 mph - N/A Fog Fog
7:15 AM 44.6 °F 41.4 °F 44.6 °F 100% 29.93 in 2.0 mi NNE 5.8 mph - N/A   Overcast
7:35 AM 44.6 °F 42.2 °F 44.6 °F 100% 29.93 in 1.5 mi NNE 4.6 mph - N/A   Overcast
7:55 AM 44.6 °F 41.4 °F 44.6 °F 100% 29.93 in 1.8 mi NE 5.8 mph - N/A   Overcast
8:15 AM 44.6 °F 41.4 °F 44.6 °F 100% 29.93 in 1.8 mi ENE 5.8 mph - N/A   Overcast
8:35 AM 44.6 °F 40.2 °F 44.6 °F 100% 29.93 in 2.5 mi NE 8.1 mph - N/A   Overcast
8:55 AM 44.6 °F 40.7 °F 44.6 °F 100% 29.93 in 2.5 mi NNE 6.9 mph - N/A   Overcast
9:15 AM 46.4 °F 42.4 °F 44.6 °F 93% 29.93 in 3.0 mi ENE 8.1 mph - N/A   Overcast
9:35 AM 44.6 °F 42.2 °F 44.6 °F 100% 29.94 in 3.0 mi ENE 4.6 mph - N/A   Overcast
9:55 AM 44.6 °F 40.2 °F 44.6 °F 100% 29.94 in 3.0 mi ENE 8.1 mph - N/A   Overcast
10:15 AM 46.4 °F 44.3 °F 44.6 °F 93% 29.93 in 3.0 mi ENE 4.6 mph - N/A   Overcast
10:35 AM 46.4 °F 42.9 °F 44.6 °F 93% 29.93 in 4.0 mi ENE 6.9 mph - N/A   Overcast
10:55 AM 46.4 °F 44.3 °F 44.6 °F 93% 29.93 in 3.0 mi East 4.6 mph - N/A   Overcast
11:15 AM 46.4 °F 42.9 °F 44.6 °F 93% 29.91 in 3.0 mi ENE 6.9 mph - N/A   Overcast
11:35 AM 46.4 °F 44.3 °F 44.6 °F 93% 29.92 in 3.0 mi East 4.6 mph - N/A   Overcast
11:55 AM 46.4 °F 45.2 °F 44.6 °F 93% 29.91 in 3.0 mi East 3.5 mph - N/A   Overcast
12:15 PM 48.2 °F - 44.6 °F 87% 29.90 in 4.0 mi East 3.5 mph - N/A   Overcast
12:35 PM 48.2 °F - 44.6 °F 87% 29.89 in 3.0 mi East 3.5 mph - N/A   Overcast
12:55 PM 48.2 °F - 44.6 °F 87% 29.88 in 5.0 mi East 6.9 mph - N/A   Overcast
1:15 PM 48.2 °F - 46.4 °F 93% 29.87 in 4.0 mi East 5.8 mph - N/A   Overcast
1:35 PM 50.0 °F - 46.4 °F 87% 29.87 in 5.0 mi East 6.9 mph - N/A   Overcast
1:55 PM 50.0 °F - 46.4 °F 87% 29.86 in 5.0 mi East 5.8 mph - N/A   Overcast
2:15 PM 50.0 °F - 46.4 °F 87% 29.85 in 5.0 mi East 5.8 mph - N/A   Overcast
2:35 PM 50.0 °F - 46.4 °F 87% 29.84 in 5.0 mi ENE 5.8 mph - N/A   Overcast
2:55 PM 50.0 °F - 46.4 °F 87% 29.84 in 5.0 mi ENE 8.1 mph - N/A   Overcast
3:15 PM 50.0 °F - 46.4 °F 87% 29.84 in 5.0 mi NE 4.6 mph - N/A   Overcast
3:35 PM 48.2 °F - 46.4 °F 93% 29.84 in 3.0 mi NNE 6.9 mph - N/A   Overcast
3:55 PM 48.2 °F - 46.4 °F 93% 29.83 in 3.0 mi NE 6.9 mph - N/A   Overcast
4:15 PM 48.2 °F - 46.4 °F 93% 29.83 in 3.0 mi NE 9.2 mph - N/A   Overcast
4:35 PM 48.2 °F - 46.4 °F 93% 29.84 in 3.0 mi NNE 6.9 mph - N/A   Overcast
4:55 PM 46.4 °F 43.5 °F 46.4 °F 100% 29.83 in 4.0 mi NE 5.8 mph - N/A   Overcast
5:15 PM 46.4 °F 44.3 °F 46.4 °F 100% 29.83 in 5.0 mi NE 4.6 mph - N/A   Overcast
5:35 PM 46.4 °F 45.2 °F 46.4 °F 100% 29.82 in 5.0 mi NE 3.5 mph - N/A   Overcast
5:55 PM 48.2 °F - 46.4 °F 93% 29.83 in 5.0 mi Calm Calm - N/A   Overcast
6:15 PM 48.2 °F - 46.4 °F 93% 29.84 in 5.0 mi NE 4.6 mph - N/A   Overcast
6:35 PM 46.4 °F 44.3 °F 44.6 °F 93% 29.83 in 4.0 mi NE 4.6 mph - N/A   Overcast
6:55 PM 46.4 °F 44.3 °F 44.6 °F 93% 29.83 in 4.0 mi NE 4.6 mph - N/A   Overcast
7:35 PM 46.4 °F 42.9 °F 44.6 °F 93% 29.83 in 4.0 mi East 6.9 mph - N/A   Mostly Cloudy
8:15 PM 46.4 °F 42.4 °F 44.6 °F 93% 29.82 in 5.0 mi ESE 8.1 mph - N/A   Mostly Cloudy
8:35 PM 50.0 °F - 46.4 °F 87% 29.81 in 7.0 mi ESE 9.2 mph - N/A   Overcast
8:55 PM 50.0 °F - 48.2 °F 94% 29.81 in 7.0 mi SE 10.4 mph - N/A   Overcast
9:15 PM 51.8 °F - 50.0 °F 94% 29.82 in 7.0 mi SE 8.1 mph - N/A   Overcast
9:55 PM 51.8 °F - 50.0 °F 94% 29.82 in 5.0 mi SE 6.9 mph - N/A   Overcast
10:35 PM 51.8 °F - 50.0 °F 94% 29.82 in 5.0 mi SE 6.9 mph - N/A   Overcast
10:55 PM 50.0 °F - 50.0 °F 100% 29.82 in 5.0 mi SE 6.9 mph - N/A   Overcast
11:15 PM 51.8 °F - 50.0 °F 94% 29.82 in 5.0 mi SE 4.6 mph - N/A   Overcast
11:35 PM 51.8 °F - 50.0 °F 94% 29.82 in 5.0 mi Calm Calm - N/A   Overcast
11:55 PM 51.8 °F - 50.0 °F 94% 29.81 in 5.0 mi Calm Calm - N/A   Overcast